Weather History for Columbia Airport, CA

Change the Weather History Date:

Sunday, May 4, 2014

  Actual Average (KMOD) Record (KMOD)
Temperature  
Mean Temperature 56 °F -  
Max Temperature 71 °F 80 °F 95 °F (1990)
Min Temperature 41 °F 53 °F 37 °F (1964)
Degree Days  
Heating Degree Days 9 2  
Month to date heating degree days 8  
Since 1 July heating degree days 2142  
Cooling Degree Days 0 3  
Month to date cooling degree days 12  
Year to date cooling degree days 56  
Growing Degree Days 6 (Base 50)    
Moisture  
Dew Point 42 °F    
Average Humidity 64    
Maximum Humidity 93    
Minimum Humidity 33    
Precipitation  
Precipitation 0.00 in 0.03 in 0.58 in (1932)
Month to date precipitation 0.11  
Year to date precipitation 8.11  
Since 1 July precipitation 12.47  
Snow  
Snow 0.00 in - - ()
Month to date snowfall  
Since 1 July snowfall  
Snow Depth -    
Sea Level Pressure  
Sea Level Pressure 30.01 in    
Wind  
Wind Speed 2 mph (SW)    
Max Wind Speed 8 mph    
Max Gust Speed -    
Visibility 10 miles    
Events      
T = Trace of Precipitation, MM = Missing Value Source: NWS Daily Summary

Daily Weather History Graph

Daily Weather History Graph

Search for Another Location

Airport:

Trip Planner

Search our weather history database for the weather conditions in past years. The results will help you decide how hot, cold, wet, or windy it might be!

Date:

Astronomy

May. 04, 2014 Rise Set
Actual Time 6:01 AM PDT 7:55 PM PDT
Civil Twilight 5:33 AM PDT 8:24 PM PDT
Nautical Twilight 4:58 AM PDT 8:59 PM PDT
Astronomical Twilight 4:21 AM PDT 9:36 PM PDT
Moon 10:31 AM PDT (5/4) 12:03 AM PDT (5/4)
Length of Visible Light 14h 50m
Length of Day
13h 53m
Waxing Crescent, 28% of the Moon is Illuminated
May 4
Waxing Crescent
May 6
First Quarter
May 14
Full
May 21
Last Quarter
May 28
New

Hourly Weather History & Observations

Time (PDT) Temp. Windchill Dew Point Humidity Pressure Visibility Wind Dir Wind Speed Gust Speed Precip Events Conditions
12:15 AM 50.0 °F - 37.4 °F 62% 30.00 in 10.0 mi Calm Calm - N/A   Clear
12:35 AM 48.2 °F - 39.2 °F 71% 30.00 in 10.0 mi Calm Calm - N/A   Clear
12:55 AM 46.4 °F - 39.2 °F 76% 30.00 in 10.0 mi Calm Calm - N/A   Clear
1:15 AM 46.4 °F 44.3 °F 39.2 °F 76% 30.00 in 10.0 mi NE 4.6 mph - N/A   Clear
1:35 AM 46.4 °F 44.3 °F 39.2 °F 76% 30.00 in 10.0 mi NE 4.6 mph - N/A   Clear
1:55 AM 46.4 °F 44.3 °F 39.2 °F 76% 30.00 in 10.0 mi NE 4.6 mph - N/A   Clear
2:35 AM 44.6 °F 42.2 °F 39.2 °F 81% 29.99 in 10.0 mi NE 4.6 mph - N/A   Partly Cloudy
2:55 AM 46.4 °F - 39.2 °F 76% 29.99 in 10.0 mi Calm Calm - N/A   Mostly Cloudy
3:15 AM 44.6 °F - 37.4 °F 76% 29.99 in 10.0 mi Calm Calm - N/A   Partly Cloudy
3:35 AM 44.6 °F - 39.2 °F 81% 29.99 in 10.0 mi Calm Calm - N/A   Clear
3:55 AM 44.6 °F - 39.2 °F 81% 29.99 in 10.0 mi Calm Calm - N/A   Scattered Clouds
4:15 AM 42.8 °F - 39.2 °F 87% 29.99 in 10.0 mi Calm Calm - N/A   Mostly Cloudy
4:35 AM 42.8 °F - 39.2 °F 87% 29.99 in 10.0 mi Calm Calm - N/A   Mostly Cloudy
4:55 AM 41.0 °F - 39.2 °F 93% 29.99 in 10.0 mi Calm Calm - N/A   Mostly Cloudy
5:15 AM 41.0 °F - 39.2 °F 93% 29.99 in 10.0 mi Calm Calm - N/A   Mostly Cloudy
5:35 AM 41.0 °F 39.0 °F 39.2 °F 93% 30.00 in 10.0 mi NE 3.5 mph - N/A   Partly Cloudy
5:55 AM 41.0 °F - 39.2 °F 93% 30.00 in 10.0 mi Calm Calm - N/A   Clear
6:15 AM 41.0 °F - 39.2 °F 93% 30.00 in 10.0 mi Calm Calm - N/A   Clear
6:35 AM 44.6 °F - 41.0 °F 87% 30.01 in 10.0 mi Calm Calm - N/A   Clear
6:55 AM 46.4 °F - 41.0 °F 81% 30.01 in 10.0 mi Calm Calm - N/A   Clear
7:15 AM 48.2 °F - 41.0 °F 76% 30.01 in 10.0 mi Calm Calm - N/A   Clear
7:35 AM 50.0 °F - 42.8 °F 76% 30.01 in 10.0 mi Calm Calm - N/A   Clear
7:55 AM 51.8 °F - 41.0 °F 67% 30.02 in 10.0 mi Calm Calm - N/A   Clear
8:15 AM 53.6 °F - 42.8 °F 67% 30.02 in 10.0 mi Calm Calm - N/A   Clear
8:35 AM 53.6 °F - 42.8 °F 67% 30.02 in 10.0 mi Calm Calm - N/A   Clear
8:55 AM 55.4 °F - 44.6 °F 67% 30.02 in 10.0 mi Calm Calm - N/A   Clear
9:15 AM 57.2 °F - 44.6 °F 63% 30.03 in 10.0 mi South 3.5 mph - N/A   Clear
9:55 AM 59.0 °F - 44.6 °F 59% 30.03 in 10.0 mi SSE 3.5 mph - N/A   Clear
10:15 AM 59.0 °F - 44.6 °F 59% 30.03 in 10.0 mi South 4.6 mph - N/A   Clear
10:35 AM 59.0 °F - 42.8 °F 55% 30.03 in 10.0 mi SSE 3.5 mph - N/A   Clear
10:55 AM 62.6 °F - 44.6 °F 52% 30.04 in 10.0 mi South 3.5 mph - N/A   Clear
11:15 AM 64.4 °F - 46.4 °F 52% 30.04 in 10.0 mi SSW 4.6 mph - N/A   Clear
11:35 AM 64.4 °F - 44.6 °F 49% 30.04 in 10.0 mi South 4.6 mph - N/A   Clear
11:55 AM 64.4 °F - 44.6 °F 49% 30.04 in 10.0 mi SSW 6.9 mph - N/A   Clear
12:15 PM 66.2 °F - 46.4 °F 49% 30.04 in 10.0 mi SW 5.8 mph - N/A   Clear
12:35 PM 66.2 °F - 44.6 °F 46% 30.03 in 10.0 mi SSW 4.6 mph - N/A   Clear
12:55 PM 68.0 °F - 42.8 °F 40% 30.03 in 10.0 mi SE 4.6 mph - N/A   Clear
1:15 PM 68.0 °F - 41.0 °F 37% 30.03 in 10.0 mi SSW 5.8 mph - N/A   Clear
1:35 PM 68.0 °F - 42.8 °F 40% 30.03 in 10.0 mi South 4.6 mph - N/A   Clear
1:55 PM 68.0 °F - 39.2 °F 35% 30.02 in 10.0 mi SSW 5.8 mph - N/A   Clear
2:15 PM 69.8 °F - 39.2 °F 33% 30.02 in 10.0 mi SSW 5.8 mph - N/A   Clear
2:35 PM 68.0 °F - 39.2 °F 35% 30.01 in 10.0 mi Calm Calm - N/A   Clear
2:55 PM 68.0 °F - 41.0 °F 37% 30.01 in 10.0 mi SE 5.8 mph - N/A   Clear
3:15 PM 71.6 °F - 42.8 °F 35% 30.00 in 10.0 mi SSW 4.6 mph - N/A   Clear
3:35 PM 69.8 °F - 41.0 °F 35% 30.00 in 10.0 mi SW 6.9 mph - N/A   Clear
3:55 PM 68.0 °F - 39.2 °F 35% 29.99 in 10.0 mi WSW 3.5 mph - N/A   Clear
4:15 PM 68.0 °F - 41.0 °F 37% 29.99 in 10.0 mi SW 5.8 mph - N/A   Clear
4:35 PM 69.8 °F - 44.6 °F 40% 29.99 in 10.0 mi WSW 6.9 mph - N/A   Clear
4:55 PM 68.0 °F - 42.8 °F 40% 29.99 in 10.0 mi WSW 4.6 mph - N/A   Clear
5:15 PM 68.0 °F - 44.6 °F 43% 29.98 in 10.0 mi WSW 8.1 mph - N/A   Clear
5:35 PM 68.0 °F - 42.8 °F 40% 29.98 in 10.0 mi WSW 6.9 mph - N/A   Clear
5:55 PM 66.2 °F - 44.6 °F 46% 29.98 in 10.0 mi WSW 6.9 mph - N/A   Clear
6:15 PM 66.2 °F - 44.6 °F 46% 29.98 in 10.0 mi WSW 6.9 mph - N/A   Clear
6:35 PM 64.4 °F - 44.6 °F 49% 29.98 in 10.0 mi West 5.8 mph - N/A   Clear
6:55 PM 62.6 °F - 44.6 °F 52% 29.98 in 10.0 mi West 6.9 mph - N/A   Clear
7:15 PM 60.8 °F - 44.6 °F 55% 29.98 in 10.0 mi West 4.6 mph - N/A   Clear
7:55 PM 57.2 °F - 44.6 °F 63% 29.99 in 10.0 mi WNW 3.5 mph - N/A   Clear
8:15 PM 57.2 °F - 44.6 °F 63% 29.99 in 10.0 mi West 5.8 mph - N/A   Clear
8:35 PM 57.2 °F - 46.4 °F 67% 30.00 in 10.0 mi West 8.1 mph - N/A   Clear
8:55 PM 55.4 °F - 46.4 °F 72% 30.01 in 10.0 mi West 6.9 mph - N/A   Clear
9:15 PM 55.4 °F - 46.4 °F 72% 30.01 in 10.0 mi West 4.6 mph - N/A   Clear
9:55 PM 53.6 °F - 46.4 °F 77% 30.02 in 10.0 mi West 5.8 mph - N/A   Clear
10:15 PM 53.6 °F - 46.4 °F 77% 30.03 in 10.0 mi West 4.6 mph - N/A   Clear
10:35 PM 51.8 °F - 46.4 °F 82% 30.03 in 10.0 mi Calm Calm - N/A   Clear
10:55 PM 50.0 °F - 46.4 °F 87% 30.03 in 10.0 mi Calm Calm - N/A   Clear
11:15 PM 50.0 °F - 46.4 °F 87% 30.03 in 10.0 mi Calm Calm - N/A   Clear
11:35 PM 50.0 °F - 44.6 °F 82% 30.03 in 10.0 mi Calm Calm - N/A   Clear
11:55 PM 48.2 °F - 46.4 °F 93% 30.03 in 10.0 mi Calm Calm - N/A   Clear